Lapse_Rate
4.8 5.1 5.6 5.6 5.6 5.8 5.8 5.7 5.6 5.6 5.7 5.8 5.8 6.0 6.2 6.2 6.2 6.1 6.1 6.1 6.1 6.2 6.2 6.3 6.4 6.5 6.5 6.3 6.3 6.5 6.4 6.4
4.9 5.2 5.5 5.6 5.7 5.8 5.7 5.6 5.6 5.7 5.8 5.8 5.9 6.1 6.1 6.1 6.1 6.1 6.0 6.0 6.0 5.9 5.7 5.7 5.8 5.8 6.0 6.2 6.3 6.2 6.1 6.4
5.0 5.4 5.6 5.7 5.7 5.6 5.6 5.6 5.7 5.7 5.7 5.8 6.0 6.1 6.1 6.0 6.0 6.0 5.9 5.8 5.6 5.6 5.5 5.6 5.6 5.7 5.7 5.7 5.9 6.1 6.2 6.0
5.3 5.6 5.7 5.7 5.7 5.7 5.7 5.7 5.6 5.7 5.8 6.0 6.0 5.9 5.9 5.9 5.9 5.7 5.6 5.4 5.2 5.2 5.1 5.1 5.1 5.0 4.8 4.8 4.8 5.0 5.4 5.8
5.5 5.7 5.6 5.8 5.8 5.7 5.8 5.6 5.6 5.7 5.9 5.9 5.8 5.8 5.7 5.7 5.6 5.4 5.2 5.0 5.0 4.8 4.6 4.4 4.3 4.2 4.1 4.1 4.2 4.4 4.5 5.1
5.5 5.7 5.8 5.9 5.8 5.7 5.6 5.5 5.5 5.7 5.9 5.8 5.7 5.6 5.5 5.4 5.2 5.1 4.9 4.8 4.5 4.2 4.0 3.9 3.8 3.9 4.0 4.3 4.4 4.4 4.5 4.7
5.5 5.6 5.7 5.7 5.6 5.5 5.4 5.4 5.5 5.7 5.7 5.6 5.4 5.4 5.3 5.1 4.9 4.6 4.4 4.1 3.9 3.8 3.8 3.9 4.1 4.4 4.6 4.8 5.0 5.0 5.0 4.9
5.4 5.4 5.4 5.3 5.4 5.4 5.3 5.4 5.6 5.6 5.5 5.3 5.2 5.1 4.9 4.7 4.5 4.2 3.9 3.8 3.8 4.0 4.4 4.7 4.9 4.9 5.0 4.9 4.9 4.8 4.8 4.8
5.1 5.1 5.2 5.2 5.3 5.2 5.3 5.4 5.5 5.4 5.3 5.1 4.9 4.7 4.5 4.4 4.2 4.0 4.0 4.2 4.4 4.7 4.9 4.9 4.9 4.9 5.0 5.0 5.0 4.9 4.8 4.9
5.1 5.0 5.1 5.2 5.3 5.2 5.3 5.3 5.3 5.3 5.1 4.8 4.6 4.5 4.5 4.2 4.2 4.1 4.2 4.5 4.6 4.7 4.7 4.6 4.7 4.9 5.0 5.2 5.3 5.5 5.8 5.9
5.0 4.9 5.0 5.2 5.2 5.2 5.3 5.4 5.4 5.3 4.9 4.7 4.7 4.6 4.3 4.1 4.0 4.1 4.3 4.3 4.3 4.3 4.3 4.5 4.8 5.1 5.7 6.3 6.8 7.0 7.0 6.9
5.1 5.0 5.0 5.2 5.2 5.3 5.4 5.3 5.3 5.2 4.9 4.9 4.8 4.5 4.2 4.1 4.0 4.0 4.1 3.9 4.0 4.2 4.5 4.6 5.0 6.0 6.9 7.0 6.9 7.0 7.3 7.1
5.2 5.1 5.0 5.2 5.2 5.3 5.4 5.3 5.5 5.2 4.9 4.9 4.6 4.5 4.2 3.9 3.8 3.9 3.8 3.8 4.1 4.4 4.6 5.3 6.0 6.7 6.8 6.7 6.5 6.5 6.8 7.1
5.1 5.0 5.1 5.2 5.4 5.5 5.4 5.4 5.3 5.0 4.8 4.6 4.7 4.4 4.1 3.8 3.7 3.6 3.8 4.1 4.2 4.4 5.1 5.9 6.0 6.2 6.5 6.5 6.5 6.4 6.5 6.6
5.1 5.1 5.2 5.4 5.5 5.4 5.3 5.3 5.2 5.1 5.0 5.0 4.8 4.3 3.8 3.5 3.6 3.8 4.1 4.2 4.3 5.0 5.5 5.7 5.9 5.7 5.8 5.9 6.2 6.4 6.6 6.6
5.1 5.2 5.4 5.6 5.5 5.3 5.4 5.6 5.3 5.2 5.2 4.9 4.4 3.9 3.7 3.7 4.0 4.1 4.2 4.2 4.8 5.3 5.5 5.5 5.5 5.6 5.5 5.5 5.9 6.4 7.0 7.3
5.2 5.3 5.6 5.6 5.5 5.4 5.6 5.4 5.3 5.1 5.0 4.6 4.2 3.9 4.0 4.1 4.3 4.2 4.2 4.7 5.0 5.3 5.3 5.2 5.2 5.3 5.4 5.6 5.8 5.9 6.2 7.0
5.2 5.5 5.7 5.6 5.5 5.6 5.6 5.5 5.2 5.1 5.0 4.7 4.3 4.2 4.3 4.4 4.2 4.2 4.5 4.9 5.1 5.1 5.1 5.1 5.2 5.2 5.4 5.4 5.6 5.9 5.9 6.1
5.5 5.7 5.7 5.6 5.6 5.7 5.6 5.4 5.0 5.1 5.0 4.8 4.6 4.4 4.4 4.3 4.3 4.4 4.9 4.9 4.9 4.9 5.1 5.1 5.2 5.3 5.4 5.5 5.6 5.5 5.8 6.1
5.7 5.8 5.8 5.6 5.8 5.8 5.5 5.1 5.1 5.1 5.0 4.8 4.5 4.3 4.2 4.4 4.3 4.9 4.9 4.9 4.9 5.0 5.2 5.2 5.3 5.4 5.5 5.7 5.9 5.9 6.0 5.8
Wind_Speed
7 7 8 8 8 7 9 9 7 8 9 10 11 13 14 17 18 18 19 20 19 19 18 18 18 18 17 19 19 19 18 12
5 4 5 6 7 8 9 8 8 9 9 9 11 11 14 16 18 20 20 20 18 19 19 19 19 19 18 18 19 20 13 14
3 4 4 5 5 6 8 8 9 9 9 9 8 11 13 16 18 20 20 19 18 19 19 19 19 17 17 17 18 12 14 13
3 4 3 3 4 5 5 6 7 7 7 7 9 10 13 15 16 18 17 18 18 18 19 19 15 14 15 15 12 13 14 14
3 3 3 4 4 4 4 4 4 5 7 9 9 11 13 14 14 14 15 15 14 16 15 14 16 15 15 15 15 15 13 13
4 4 4 4 4 5 4 4 4 4 6 9 11 11 13 14 13 14 13 13 15 14 13 15 14 14 15 16 17 15 13 14
4 5 5 4 4 4 4 4 5 5 7 10 12 13 12 14 13 13 13 14 13 13 13 13 14 14 14 15 15 16 17 16
6 5 4 4 5 4 4 4 4 5 7 11 13 13 13 12 12 12 12 13 13 12 11 12 10 14 11 15 15 17 17 17
6 6 5 4 4 4 4 4 4 6 8 11 13 13 13 12 11 11 13 14 12 12 13 13 10 11 13 12 14 16 15 16
7 6 6 5 4 3 3 4 4 7 10 11 12 13 13 12 11 10 14 12 12 10 8 10 9 8 11 11 11 13 14 15
7 6 5 4 4 4 4 3 4 8 11 12 14 13 14 13 11 13 14 11 9 8 9 9 9 9 10 12 12 11 12 10
7 5 4 2 1 1 2 3 3 8 10 13 14 14 15 15 13 13 12 8 8 7 10 10 10 9 10 12 12 11 9 8
6 5 4 2 3 4 2 3 4 5 10 12 14 16 16 14 13 12 12 9 9 9 9 11 9 9 10 10 10 9 9 3
6 6 4 4 3 3 2 3 3 5 8 11 14 15 17 15 13 10 11 9 10 10 11 9 10 9 6 11 6 7 2 12
6 6 5 5 4 3 3 3 3 4 6 7 14 16 17 15 14 13 11 8 8 9 10 12 10 10 9 4 4 3 12 2
7 6 5 4 4 4 5 5 6 6 6 8 12 15 15 16 16 14 12 9 9 9 9 10 9 10 8 6 8 9 5 6
7 6 5 4 4 4 4 7 5 6 7 11 11 14 15 16 16 15 11 9 11 11 12 12 9 8 8 7 9 8 9 7
7 5 4 4 3 5 6 7 9 9 11 10 10 10 10 15 18 15 15 11 12 11 13 12 10 9 8 9 8 6 6 6
6 4 5 3 4 5 6 7 10 11 11 10 12 10 10 12 16 13 11 14 14 13 12 11 10 10 10 8 8 8 8 8
6 5 3 3 4 5 5 7 7 6 9 9 9 9 9 15 14 16 16 18 16 13 10 9 11 10 13 11 9 8 8 8
Wind_Direction
59 52 47 49 51 53 39 29 40 43 31 27 21 13 6 0 355 349 347 344 340 339 334 329 325 323 322 320 318 315 315 309
70 68 54 48 45 55 37 40 63 50 35 33 26 14 3 356 353 351 348 346 344 340 335 330 326 323 319 317 315 310 306 308
89 73 61 49 58 49 44 64 64 49 43 32 16 6 354 352 351 350 348 344 343 340 335 329 325 317 316 318 316 304 306 301
106 80 63 59 69 54 62 85 62 55 45 27 11 358 352 350 348 348 346 344 339 337 332 328 322 319 315 317 315 311 299 296
122 88 64 81 69 59 61 95 48 59 41 19 2 351 351 353 347 345 341 340 337 331 327 326 324 319 317 314 313 308 301 294
124 96 97 77 77 65 71 59 54 47 28 11 359 352 351 352 347 341 337 335 329 329 324 326 317 312 309 308 309 304 297 294
122 104 102 87 82 69 65 62 65 49 19 10 3 356 354 344 340 336 332 330 327 328 323 314 312 311 307 300 292 290 290 289
126 119 113 94 82 65 68 83 76 38 17 8 5 360 353 341 335 332 329 331 331 312 307 307 305 300 296 298 295 292 288 285
137 131 113 101 87 66 66 75 59 25 7 6 6 359 346 339 334 332 331 334 316 312 308 303 303 306 308 296 292 288 283 281
147 135 122 101 78 61 74 82 50 16 7 2 359 353 350 339 336 334 338 323 317 312 310 312 310 303 294 300 296 291 284 281
142 133 117 102 85 76 81 100 33 12 12 5 358 355 349 341 337 335 337 320 313 311 312 307 305 299 303 301 296 286 285 277
135 125 105 87 50 100 73 46 8 12 17 11 7 358 350 346 339 341 325 314 315 314 309 307 300 299 306 297 296 287 276 269
132 115 69 23 357 344 323 351 357 11 11 11 8 2 355 347 342 336 326 324 321 314 309 305 308 309 309 314 301 280 276 248
118 103 80 46 18 6 330 341 335 357 1 7 2 357 358 349 340 330 327 325 322 323 317 315 311 321 311 309 318 314 207 315
126 106 81 50 20 3 356 323 326 345 357 354 356 358 351 342 335 332 329 327 320 315 313 313 309 313 318 307 299 299 323 255
125 105 76 54 27 21 13 3 359 349 340 343 349 346 340 341 335 335 330 330 320 315 316 312 311 307 310 290 280 280 289 305
120 104 80 55 37 13 4 9 345 340 348 344 339 340 342 341 337 334 333 330 327 321 321 318 307 306 302 297 287 275 260 262
124 111 79 52 27 24 17 3 359 2 357 344 344 341 341 343 340 337 332 332 335 321 312 314 318 306 294 285 277 276 267 263
127 113 75 44 31 22 13 5 12 9 357 348 345 344 343 341 340 339 338 339 333 318 323 318 314 306 298 290 281 266 264 258
130 110 91 52 28 22 12 16 15 8 356 352 350 344 337 337 340 340 342 345 337 338 327 324 319 310 301 292 283 276 261 249